M I D A S
Marine Information and Data Acquisition System
Tripno 863 of the Zeeleeuw from 2005-03-15 07:17:54 to 2005-03-15 12:53:38
Back to CruiseResearch ActivitiesStationsMapUnderway DataData graphs

EquipmentUnitsComments
TimeDGPSUTC
LatitudeDGPSDM.mWGS84
LongitudeDGPSDM.mWGS84
SpeedMeteo Stationm/sRelative wind speed
DirectionMeteo StationdegRelative wind direction
TemperatureMeteo Stationdeg CelciusAir temperature
PressureMeteo StationPaAtmospheric pressure
HumidityMeteo Station%Relative humidity
Missing or incorrect values are displayed as -999
Metereological data collected by the RV Zeeleeuw from 2005-03-15 07:14:11 to 2005-03-15 13:03:22
                                                                                    Next 1000 lines
Time Latitude Longitude Speed Direction Temperature Pressure Humidity
2005-03-15 07:14:20 51°13.597 2°56.093 2.2 107 3.7 101790 75
2005-03-15 07:14:26 51°13.598 2°56.089 2.8 106 3.7 101790 75
2005-03-15 07:14:31 51°13.599 2°56.084 2.9 109 3.7 101790 75
2005-03-15 07:14:36 51°13.601 2°56.079 3.5 134 3.7 101790 75
2005-03-15 07:14:42 51°13.603 2°56.073 4.5 226 3.6 101790 75
2005-03-15 07:14:47 51°13.605 2°56.067 3.8 136 3.6 101790 75
2005-03-15 07:14:51 51°13.607 2°56.062 4.5 104 3.7 101790 75
2005-03-15 07:14:56 51°13.609 2°56.055 4.6 96 3.7 101790 75
2005-03-15 07:15:02 51°13.611 2°56.048 3 83 3.7 101790 75
2005-03-15 07:15:07 51°13.614 2°56.041 3.3 125 3.7 101790 75
2005-03-15 07:15:12 51°13.616 2°56.033 3.6 140 3.7 101790 75
2005-03-15 07:15:16 51°13.619 2°56.027 2.4 115 3.7 101790 75
2005-03-15 07:15:22 51°13.622 2°56.017 2.5 130 3.7 101790 75
2005-03-15 07:15:27 51°13.625 2°56.009 3.7 127 3.7 101790 75
2005-03-15 07:15:31 51°13.627 2°56.001 5.2 128 3.7 101790 75
2005-03-15 07:15:36 51°13.63 2°55.992 3.4 124 3.7 101790 75
2005-03-15 07:15:41 51°13.633 2°55.984 4.4 131 3.7 101790 74
2005-03-15 07:15:47 51°13.636 2°55.973 4.7 131 3.7 101790 74
2005-03-15 07:15:52 51°13.639 2°55.964 4 122 3.7 101790 74
2005-03-15 07:15:56 51°13.641 2°55.956 3.3 117 3.7 101790 74
2005-03-15 07:16:01 51°13.644 2°55.946 2.6 137 3.7 101790 74
2005-03-15 07:16:07 51°13.647 2°55.936 3.2 136 3.7 101790 74
2005-03-15 07:16:12 51°13.65 2°55.926 4.1 150 3.7 101790 74
2005-03-15 07:16:16 51°13.653 2°55.917 4.4 110 3.7 101790 74
2005-03-15 07:16:21 51°13.655 2°55.907 3.7 139 3.7 101790 74
2005-03-15 07:16:27 51°13.658 2°55.896 5.9 150 3.7 101790 74
2005-03-15 07:16:30 51°13.66 2°55.889 6 151 3.7 101790 74
2005-03-15 07:16:36 51°13.662 2°55.877 6 124 3.7 101790 74
2005-03-15 07:16:42 51°13.665 2°55.867 5.8 124 3.7 101790 74
2005-03-15 07:16:46 51°13.666 2°55.86 5.2 145 3.7 101790 74
2005-03-15 07:16:51 51°13.668 2°55.852 5 45 3.7 101800 74
2005-03-15 07:16:56 51°13.669 2°55.844 3.2 156 3.7 101800 74
2005-03-15 07:17:01 51°13.669 2°55.844 3.8 133 3.7 101790 74
2005-03-15 07:17:06 51°13.671 2°55.826 5.5 122 3.7 101790 74
2005-03-15 07:17:11 51°13.672 2°55.819 3.9 132 3.7 101790 74
2005-03-15 07:17:16 51°13.673 2°55.811 4.2 153 3.7 101790 74
2005-03-15 07:17:22 51°13.673 2°55.801 2.6 146 3.7 101790 74
2005-03-15 07:17:26 51°13.674 2°55.795 2.7 135 3.7 101790 74
2005-03-15 07:17:30 51°13.674 2°55.79 3.4 137 3.7 101790 74
2005-03-15 07:17:36 51°13.674 2°55.784 2.5 142 3.7 101790 74
2005-03-15 07:17:40 51°13.674 2°55.781 2.7 128 3.7 101790 74
2005-03-15 07:17:46 51°13.675 2°55.779 2.6 121 3.7 101790 74
2005-03-15 07:17:51 51°13.676 2°55.779 2.7 118 3.7 101790 74
2005-03-15 07:17:56 51°13.677 2°55.78 2.4 137 3.7 101790 74
2005-03-15 07:18:01 51°13.678 2°55.782 1.3 163 3.7 101790 74
2005-03-15 07:18:07 51°13.68 2°55.785 1.3 138 3.7 101790 74
2005-03-15 07:18:11 51°13.683 2°55.788 1.7 174 3.7 101790 74
2005-03-15 07:18:16 51°13.686 2°55.791 2.4 162 3.7 101790 74
2005-03-15 07:18:21 51°13.69 2°55.793 2.1 164 3.7 101790 75
2005-03-15 07:18:26 51°13.694 2°55.795 2.5 181 3.7 101790 75
2005-03-15 07:18:31 51°13.7 2°55.797 2 193 3.7 101790 75
2005-03-15 07:18:36 51°13.705 2°55.797 1.2 279 3.7 101790 75
2005-03-15 07:18:41 51°13.712 2°55.795 1.6 290 3.7 101790 75
2005-03-15 07:18:46 51°13.719 2°55.792 1.4 309 3.7 101790 75
2005-03-15 07:18:51 51°13.726 2°55.785 3.2 284 3.7 101790 75
2005-03-15 07:18:56 51°13.732 2°55.778 3.3 277 3.7 101790 75
2005-03-15 07:19:00 51°13.736 2°55.77 2.8 286 3.7 101790 75
2005-03-15 07:19:06 51°13.742 2°55.76 4.1 282 3.7 101790 75
2005-03-15 07:19:11 51°13.747 2°55.75 3.4 265 3.8 101790 75
2005-03-15 07:19:16 51°13.752 2°55.74 3.2 295 3.8 101790 75
2005-03-15 07:19:21 51°13.759 2°55.727 2.5 306 3.8 101790 75
2005-03-15 07:19:26 51°13.764 2°55.717 3 229 3.8 101790 75
2005-03-15 07:19:31 51°13.771 2°55.704 3.5 42 3.8 101790 75
2005-03-15 07:19:36 51°13.78 2°55.69 2.7 294 3.8 101790 75
2005-03-15 07:19:41 51°13.785 2°55.682 3.8 318 3.8 101790 75
2005-03-15 07:19:46 51°13.796 2°55.668 2.8 268 3.8 101790 75
2005-03-15 07:19:51 51°13.806 2°55.658 1.7 301 3.8 101790 75
2005-03-15 07:19:56 51°13.817 2°55.648 1.3 228 3.8 101790 75
2005-03-15 07:20:01 51°13.829 2°55.637 0.7 228 3.8 101790 75
2005-03-15 07:20:06 51°13.84 2°55.628 1.1 233 3.8 101790 75
2005-03-15 07:20:10 51°13.849 2°55.62 1.1 240 3.9 101790 75
2005-03-15 07:20:16 51°13.862 2°55.61 0.9 256 3.9 101790 75
2005-03-15 07:20:21 51°13.874 2°55.601 2.8 319 3.8 101790 75
2005-03-15 07:20:26 51°13.887 2°55.591 4.2 330 3.8 101790 75
2005-03-15 07:20:30 51°13.897 2°55.583 1.4 209 3.9 101790 75
2005-03-15 07:20:36 51°13.912 2°55.572 3.2 282 3.9 101790 75
2005-03-15 07:20:40 51°13.922 2°55.565 2.1 268 3.9 101790 75
2005-03-15 07:20:46 51°13.936 2°55.554 2.5 275 3.9 101790 75
2005-03-15 07:20:51 51°13.95 2°55.544 1.8 306 3.9 101790 75
2005-03-15 07:20:56 51°13.963 2°55.535 2.7 301 3.9 101790 75
2005-03-15 07:21:01 51°13.975 2°55.526 3.6 41 3.9 101790 75
2005-03-15 07:21:06 51°13.988 2°55.517 3.1 308 3.9 101790 75
2005-03-15 07:21:11 51°14 2°55.508 4.4 297 3.9 101790 74
2005-03-15 07:21:16 51°14.012 2°55.498 3.5 307 3.9 101790 74
2005-03-15 07:21:20 51°14.023 2°55.491 4.7 306 4 101790 74
2005-03-15 07:21:26 51°14.039 2°55.478 3.3 42 4 101790 74
2005-03-15 07:21:31 51°14.052 2°55.469 3.9 313 4 101790 74
2005-03-15 07:21:36 51°14.063 2°55.461 2.7 294 4 101790 74
2005-03-15 07:21:42 51°14.079 2°55.45 2.4 310 4 101790 74
2005-03-15 07:21:46 51°14.089 2°55.442 2.4 302 4 101790 74
2005-03-15 07:21:50 51°14.1 2°55.434 3.9 280 4 101790 74
2005-03-15 07:21:56 51°14.115 2°55.422 1.3 262 4 101790 74
2005-03-15 07:22:01 51°14.129 2°55.411 1.2 275 4 101790 74
2005-03-15 07:22:06 51°14.141 2°55.401 2 318 4 101790 74
2005-03-15 07:22:11 51°14.154 2°55.391 2.5 330 4 101790 74
2005-03-15 07:22:16 51°14.167 2°55.379 3.2 328 4 101790 74
2005-03-15 07:22:20 51°14.179 2°55.368 3.3 318 4 101790 74
2005-03-15 07:22:26 51°14.192 2°55.353 2.8 293 4 101790 74
2005-03-15 07:22:31 51°14.206 2°55.338 3 307 4 101790 74
2005-03-15 07:22:36 51°14.216 2°55.325 3.9 310 4 101790 74
2005-03-15 07:22:40 51°14.226 2°55.313 5.2 352 4 101780 74
2005-03-15 07:22:46 51°14.24 2°55.292 4.4 323 4 101780 74
2005-03-15 07:22:50 51°14.249 2°55.278 4.8 334 4.1 101790 74
2005-03-15 07:22:55 51°14.259 2°55.261 5.9 343 4.1 101790 74
2005-03-15 07:23:00 51°14.27 2°55.243 5.7 335 4 101790 74
2005-03-15 07:23:06 51°14.282 2°55.222 9.4 332 4 101790 74
2005-03-15 07:23:11 51°14.292 2°55.203 8.6 315 4.1 101790 74
2005-03-15 07:23:16 51°14.302 2°55.186 6.4 310 4.1 101790 74
2005-03-15 07:23:21 51°14.313 2°55.164 7.2 331 4.1 101780 74
2005-03-15 07:23:26 51°14.323 2°55.145 5.8 302 4.1 101780 74
2005-03-15 07:23:30 51°14.331 2°55.129 5.1 319 4.1 101780 74
2005-03-15 07:23:36 51°14.345 2°55.105 6.5 318 4.1 101780 74
2005-03-15 07:23:41 51°14.355 2°55.086 5.6 326 4.1 101780 73
2005-03-15 07:23:46 51°14.365 2°55.069 4.5 299 4.1 101780 73
2005-03-15 07:23:51 51°14.377 2°55.047 6.9 289 4.1 101780 73
2005-03-15 07:23:56 51°14.387 2°55.03 7.5 296 4.1 101780 73
2005-03-15 07:24:00 51°14.397 2°55.014 8.3 290 4.1 101780 73
2005-03-15 07:24:06 51°14.411 2°54.99 4.8 304 4.1 101780 73
2005-03-15 07:24:11 51°14.425 2°54.969 5.3 289 4.2 101780 73
2005-03-15 07:24:16 51°14.437 2°54.951 7.6 291 4.2 101780 73
2005-03-15 07:24:21 51°14.452 2°54.931 5.5 289 4.2 101780 73
2005-03-15 07:24:26 51°14.466 2°54.913 6.5 278 4.2 101780 73
2005-03-15 07:24:31 51°14.478 2°54.896 7.8 290 4.2 101770 73
2005-03-15 07:24:36 51°14.493 2°54.879 7.1 295 4.2 101770 73
2005-03-15 07:24:41 51°14.508 2°54.859 7.5 278 4.2 101770 73
2005-03-15 07:24:46 51°14.523 2°54.843 7.6 294 4.2 101770 73
2005-03-15 07:24:51 51°14.538 2°54.826 7.3 291 4.2 101770 73
2005-03-15 07:24:56 51°14.551 2°54.811 6.7 291 4.2 101770 73
2005-03-15 07:25:00 51°14.563 2°54.798 7.2 283 4.3 101780 73
2005-03-15 07:25:06 51°14.583 2°54.777 7.2 280 4.3 101780 73
2005-03-15 07:25:10 51°14.596 2°54.766 6.9 277 4.3 101780 73
2005-03-15 07:25:16 51°14.614 2°54.754 6.3 278 4.3 101780 73
2005-03-15 07:25:21 51°14.633 2°54.745 6.3 279 4.3 101780 73
2005-03-15 07:25:26 51°14.649 2°54.741 2.3 259 4.3 101780 73
2005-03-15 07:25:31 51°14.666 2°54.737 3 252 4.3 101720 73
2005-03-15 07:25:36 51°14.685 2°54.736 2.5 263 4.3 101720 73
2005-03-15 07:25:40 51°14.699 2°54.735 2.1 250 4.3 101730 73
2005-03-15 07:25:46 51°14.718 2°54.735 2.1 238 4.3 101730 73
2005-03-15 07:25:50 51°14.732 2°54.737 2.1 229 4.3 101790 73
2005-03-15 07:25:56 51°14.756 2°54.74 1.8 210 4.3 101790 73
2005-03-15 07:26:01 51°14.773 2°54.744 1.9 199 4.3 101740 73
2005-03-15 07:26:06 51°14.788 2°54.748 2.8 42 4.3 101740 73
2005-03-15 07:26:10 51°14.802 2°54.753 1.8 138 4.3 101730 73
2005-03-15 07:26:16 51°14.819 2°54.759 2.9 126 4.3 101730 73
2005-03-15 07:26:20 51°14.831 2°54.766 3.5 201 4.3 101730 73
2005-03-15 07:26:26 51°14.846 2°54.776 3.7 162 4.3 101730 73
2005-03-15 07:26:30 51°14.854 2°54.782 2.8 199 4.3 101740 73
2005-03-15 07:26:36 51°14.865 2°54.791 2.8 162 4.3 101740 73
2005-03-15 07:26:42 51°14.876 2°54.8 4.4 171 4.3 101770 73
2005-03-15 07:26:46 51°14.883 2°54.807 4.5 168 4.3 101770 73
2005-03-15 07:26:51 51°14.891 2°54.813 5.2 149 4.3 101770 73
2005-03-15 07:26:56 51°14.898 2°54.819 7.6 165 4.3 101770 73
2005-03-15 07:27:01 51°14.905 2°54.824 4.4 180 4.3 101770 73
2005-03-15 07:27:06 51°14.912 2°54.83 6.3 155 4.3 101770 73
2005-03-15 07:27:11 51°14.919 2°54.835 7.6 157 4.3 101770 73
2005-03-15 07:27:16 51°14.925 2°54.839 7 185 4.3 101770 73
2005-03-15 07:27:21 51°14.931 2°54.844 7.5 176 4.4 101780 73
2005-03-15 07:27:26 51°14.937 2°54.848 6.4 180 4.4 101780 73
2005-03-15 07:27:31 51°14.942 2°54.851 7.2 182 4.4 101780 73
2005-03-15 07:27:36 51°14.948 2°54.855 7.3 184 4.4 101780 73
2005-03-15 07:27:41 51°14.954 2°54.858 5.1 194 4.4 101780 73
2005-03-15 07:27:46 51°14.959 2°54.861 7.1 173 4.4 101780 73
2005-03-15 07:27:51 51°14.964 2°54.864 3.8 190 4.5 101790 73
2005-03-15 07:27:56 51°14.968 2°54.866 3.3 190 4.5 101790 73
2005-03-15 07:28:01 51°14.974 2°54.868 5.4 181 4.5 101790 73
2005-03-15 07:28:06 51°14.978 2°54.87 3.9 179 4.5 101790 73
2005-03-15 07:28:10 51°14.982 2°54.872 3.6 190 4.5 101790 72
2005-03-15 07:28:16 51°14.987 2°54.874 3.8 197 4.5 101790 72
2005-03-15 07:28:20 51°14.99 2°54.875 3.5 191 4.5 101780 72
2005-03-15 07:28:26 51°14.995 2°54.876 5.1 192 4.5 101780 72
2005-03-15 07:28:30 51°14.999 2°54.878 4.9 194 4.5 101780 73
2005-03-15 07:28:36 51°15.003 2°54.879 8 204 4.5 101780 73
2005-03-15 07:28:41 51°15.008 2°54.88 6.4 199 4.6 101780 73
2005-03-15 07:28:46 51°15.011 2°54.88 7.9 211 4.6 101780 73
2005-03-15 07:28:51 51°15.015 2°54.881 5.5 205 4.6 101790 73
2005-03-15 07:28:56 51°15.019 2°54.881 8.3 208 4.6 101790 73
2005-03-15 07:29:01 51°15.023 2°54.881 7.8 206 4.6 101780 72
2005-03-15 07:29:06 51°15.026 2°54.882 6.8 199 4.6 101780 72
2005-03-15 07:29:10 51°15.03 2°54.882 6.2 203 4.6 101790 72
2005-03-15 07:29:15 51°15.033 2°54.882 5.9 202 4.6 101790 72
2005-03-15 07:29:21 51°15.037 2°54.881 7.4 209 4.6 101770 72
2005-03-15 07:29:26 51°15.041 2°54.881 7.5 208 4.6 101770 72
2005-03-15 07:29:31 51°15.044 2°54.881 8.3 213 4.5 101770 72
2005-03-15 07:29:36 51°15.047 2°54.88 6.3 216 4.5 101770 72
2005-03-15 07:29:41 51°15.051 2°54.88 8.7 226 4.5 101770 72
2005-03-15 07:29:46 51°15.055 2°54.879 8.7 225 4.5 101770 72
2005-03-15 07:29:50 51°15.059 2°54.878 8.5 237 4.5 101770 72
2005-03-15 07:29:56 51°15.064 2°54.876 9.5 229 4.5 101770 72
2005-03-15 07:30:00 51°15.067 2°54.874 7.7 232 4.5 101770 72
2005-03-15 07:30:06 51°15.072 2°54.872 8.2 238 4.5 101770 72
2005-03-15 07:30:10 51°15.076 2°54.869 9.4 236 4.5 101760 72
2005-03-15 07:30:16 51°15.081 2°54.866 8.8 239 4.5 101760 72
2005-03-15 07:30:21 51°15.086 2°54.863 8.5 243 4.5 101760 72
2005-03-15 07:30:26 51°15.091 2°54.86 6.5 244 4.5 101760 72
2005-03-15 07:30:30 51°15.095 2°54.857 6.5 247 4.5 101760 72
2005-03-15 07:30:36 51°15.102 2°54.853 6.3 243 4.5 101760 72
2005-03-15 07:30:40 51°15.108 2°54.848 5.8 243 4.5 101790 73
2005-03-15 07:30:46 51°15.117 2°54.843 4.8 250 4.5 101790 73
2005-03-15 07:30:50 51°15.123 2°54.838 5.7 250 4.5 101750 72
2005-03-15 07:30:56 51°15.134 2°54.831 3.6 255 4.5 101750 72
2005-03-15 07:31:01 51°15.144 2°54.824 5 262 4.5 101750 72
2005-03-15 07:31:06 51°15.154 2°54.818 3.8 256 4.5 101750 72
2005-03-15 07:31:11 51°15.167 2°54.81 5.2 256 4.5 101740 73
2005-03-15 07:31:16 51°15.179 2°54.803 7.4 269 4.5 101740 73
2005-03-15 07:31:21 51°15.194 2°54.794 4.1 258 4.5 101780 73
2005-03-15 07:31:26 51°15.206 2°54.787 6.4 269 4.5 101780 73
2005-03-15 07:31:31 51°15.22 2°54.778 4.7 262 4.5 101790 73
2005-03-15 07:31:36 51°15.237 2°54.769 5.8 270 4.5 101790 73
2005-03-15 07:31:40 51°15.249 2°54.762 7.4 271 4.5 101790 73
2005-03-15 07:31:46 51°15.267 2°54.751 5.6 269 4.5 101790 73
2005-03-15 07:31:51 51°15.282 2°54.742 5.4 272 4.5 101790 72
2005-03-15 07:31:56 51°15.296 2°54.734 5.6 266 4.5 101790 72
2005-03-15 07:32:00 51°15.309 2°54.727 5.4 272 4.5 101790 72
2005-03-15 07:32:06 51°15.328 2°54.716 5.2 275 4.5 101790 72
2005-03-15 07:32:11 51°15.345 2°54.707 6.5 273 4.5 101790 73
2005-03-15 07:32:15 51°15.36 2°54.698 6.2 277 4.5 101790 73
2005-03-15 07:32:20 51°15.375 2°54.689 5.9 282 4.5 101790 73
2005-03-15 07:32:26 51°15.397 2°54.675 8.2 279 4.5 101790 73
2005-03-15 07:32:30 51°15.41 2°54.666 6.5 281 4.5 101780 73
2005-03-15 07:32:36 51°15.428 2°54.651 8.1 287 4.5 101780 73
2005-03-15 07:32:41 51°15.444 2°54.636 7.5 287 4.5 101780 73
2005-03-15 07:32:46 51°15.46 2°54.621 7.3 289 4.5 101780 73
2005-03-15 07:32:50 51°15.472 2°54.607 8.5 297 4.5 101780 73
2005-03-15 07:32:56 51°15.491 2°54.587 7.4 292 4.5 101780 73
2005-03-15 07:33:01 51°15.507 2°54.567 8.3 293 4.5 101780 73
2005-03-15 07:33:06 51°15.521 2°54.551 9 294 4.5 101780 73
2005-03-15 07:33:11 51°15.536 2°54.531 8 298 4.5 101720 73
2005-03-15 07:33:16 51°15.552 2°54.51 7.9 296 4.5 101720 73
2005-03-15 07:33:21 51°15.566 2°54.49 8.3 293 4.5 101720 73
2005-03-15 07:33:26 51°15.579 2°54.473 8.7 293 4.5 101720 73
2005-03-15 07:33:31 51°15.596 2°54.451 8.4 287 4.5 101720 73
2005-03-15 07:33:36 51°15.609 2°54.434 8.1 296 4.5 101720 73
2005-03-15 07:33:40 51°15.623 2°54.416 8 296 4.5 101720 73
2005-03-15 07:33:46 51°15.639 2°54.396 8.8 302 4.5 101720 73
2005-03-15 07:33:51 51°15.656 2°54.375 8.2 299 4.5 101720 73
2005-03-15 07:33:56 51°15.669 2°54.357 8.3 294 4.5 101720 73
2005-03-15 07:34:01 51°15.686 2°54.336 7.1 294 4.5 101720 73
2005-03-15 07:34:06 51°15.7 2°54.316 7.2 298 4.5 101720 73
2005-03-15 07:34:11 51°15.716 2°54.297 8.8 292 4.5 101720 73
2005-03-15 07:34:16 51°15.729 2°54.28 8 297 4.5 101720 73
2005-03-15 07:34:19 51°15.74 2°54.266 8.9 295 4.5 101720 74
2005-03-15 07:34:26 51°15.761 2°54.239 8.4 292 4.5 101720 74
2005-03-15 07:34:31 51°15.776 2°54.219 7.3 298 4.5 101720 74
2005-03-15 07:34:36 51°15.79 2°54.202 9.1 295 4.5 101720 74
2005-03-15 07:34:40 51°15.804 2°54.184 7.8 290 4.5 101720 74
2005-03-15 07:34:46 51°15.822 2°54.162 8 305 4.5 101720 74
2005-03-15 07:34:51 51°15.835 2°54.144 7.9 299 4.5 101720 74
2005-03-15 07:34:56 51°15.852 2°54.122 7.7 300 4.5 101720 74
2005-03-15 07:35:00 51°15.862 2°54.108 8.3 291 4.4 101720 74
2005-03-15 07:35:06 51°15.88 2°54.084 8.3 295 4.4 101720 74
2005-03-15 07:35:11 51°15.895 2°54.065 8.2 289 4.5 101720 74
2005-03-15 07:35:16 51°15.91 2°54.045 7.8 294 4.5 101720 74
2005-03-15 07:35:21 51°15.926 2°54.024 8.5 299 4.5 101780 74
2005-03-15 07:35:26 51°15.941 2°54.005 7.3 290 4.5 101780 74
2005-03-15 07:35:30 51°15.953 2°53.989 7.8 295 4.5 101770 74
2005-03-15 07:35:35 51°15.968 2°53.97 7.9 295 4.5 101770 74
2005-03-15 07:35:40 51°15.983 2°53.95 8.2 299 4.5 101720 74
2005-03-15 07:35:46 51°16.002 2°53.929 8.9 288 4.5 101720 74
2005-03-15 07:35:50 51°16.014 2°53.915 8.1 288 4.4 101730 74
2005-03-15 07:35:56 51°16.032 2°53.896 8.9 293 4.4 101730 74
2005-03-15 07:36:00 51°16.044 2°53.882 6.9 297 4.5 101710 74
2005-03-15 07:36:06 51°16.063 2°53.861 8.8 285 4.5 101710 74
2005-03-15 07:36:10 51°16.077 2°53.846 8.2 292 4.5 101720 74
2005-03-15 07:36:16 51°16.095 2°53.827 8.4 282 4.5 101720 74
2005-03-15 07:36:20 51°16.107 2°53.813 6.9 292 4.5 101720 74
2005-03-15 07:36:26 51°16.127 2°53.793 8.5 282 4.5 101720 74
2005-03-15 07:36:30 51°16.141 2°53.778 7.5 285 4.5 101720 74
2005-03-15 07:36:36 51°16.159 2°53.759 6.6 292 4.5 101720 74
2005-03-15 07:36:40 51°16.173 2°53.744 7.3 296 4.5 101720 74
2005-03-15 07:36:46 51°16.192 2°53.724 7.3 285 4.5 101720 74
2005-03-15 07:36:51 51°16.208 2°53.707 7.9 289 4.5 101720 74
2005-03-15 07:36:56 51°16.223 2°53.692 7 292 4.5 101720 74
2005-03-15 07:37:01 51°16.24 2°53.673 7.3 299 4.5 101720 74
2005-03-15 07:37:06 51°16.254 2°53.657 7.1 291 4.5 101720 74
2005-03-15 07:37:11 51°16.272 2°53.638 7.2 284 4.5 101720 75
2005-03-15 07:37:15 51°16.284 2°53.624 6.9 287 4.5 101720 75
2005-03-15 07:37:21 51°16.304 2°53.604 7.3 285 4.5 101720 75
2005-03-15 07:37:26 51°16.32 2°53.588 7.2 284 4.5 101720 75
2005-03-15 07:37:31 51°16.334 2°53.573 7.3 281 4.5 101720 75
2005-03-15 07:37:36 51°16.35 2°53.556 7.1 289 4.5 101720 75
2005-03-15 07:37:41 51°16.368 2°53.537 7.4 290 4.5 101720 75
2005-03-15 07:37:46 51°16.384 2°53.521 7.4 287 4.5 101720 75
2005-03-15 07:37:51 51°16.4 2°53.504 6.8 289 4.5 101720 75
2005-03-15 07:37:56 51°16.415 2°53.49 7.4 285 4.5 101720 75
2005-03-15 07:38:01 51°16.433 2°53.472 7.3 288 4.5 101720 75
2005-03-15 07:38:06 51°16.449 2°53.455 6.6 290 4.5 101720 75
2005-03-15 07:38:10 51°16.462 2°53.442 6.7 293 4.5 101720 75
2005-03-15 07:38:16 51°16.479 2°53.423 6.1 289 4.5 101720 75
2005-03-15 07:38:21 51°16.496 2°53.406 6.6 292 4.5 101720 75
2005-03-15 07:38:26 51°16.511 2°53.39 5.9 298 4.5 101720 75
2005-03-15 07:38:30 51°16.526 2°53.375 6.6 290 4.5 101720 75
2005-03-15 07:38:36 51°16.544 2°53.356 6.5 293 4.5 101720 75
2005-03-15 07:38:39 51°16.555 2°53.344 7.2 286 4.5 101720 75
2005-03-15 07:38:46 51°16.577 2°53.319 6.8 286 4.5 101720 75
2005-03-15 07:38:51 51°16.591 2°53.304 6.2 288 4.5 101720 75
2005-03-15 07:38:56 51°16.607 2°53.286 6 290 4.5 101720 75
2005-03-15 07:39:00 51°16.621 2°53.271 6.8 298 4.5 101770 75
2005-03-15 07:39:06 51°16.639 2°53.252 6.4 297 4.5 101770 75
2005-03-15 07:39:11 51°16.656 2°53.234 5.8 288 4.5 101710 75
2005-03-15 07:39:16 51°16.671 2°53.218 5.2 286 4.5 101710 75
2005-03-15 07:39:21 51°16.688 2°53.199 6.1 290 4.5 101720 75
2005-03-15 07:39:26 51°16.704 2°53.183 6.3 291 4.5 101720 75
2005-03-15 07:39:30 51°16.717 2°53.169 5.5 291 4.5 101720 75
2005-03-15 07:39:36 51°16.737 2°53.149 6.8 281 4.5 101720 75
2005-03-15 07:39:41 51°16.752 2°53.132 5.9 295 4.5 101710 75
2005-03-15 07:39:46 51°16.767 2°53.117 6.4 293 4.5 101710 75
2005-03-15 07:39:51 51°16.783 2°53.1 6.6 292 4.5 101720 75
2005-03-15 07:39:56 51°16.801 2°53.082 5.6 297 4.5 101720 75
2005-03-15 07:40:01 51°16.817 2°53.066 6.6 295 4.5 101720 75
2005-03-15 07:40:06 51°16.833 2°53.049 7 283 4.5 101720 75
2005-03-15 07:40:10 51°16.845 2°53.036 6.6 284 4.5 101710 75
2005-03-15 07:40:16 51°16.862 2°53.018 5.7 291 4.5 101710 75
2005-03-15 07:40:21 51°16.879 2°53 5.4 290 4.5 101710 75
2005-03-15 07:40:26 51°16.893 2°52.986 5.5 291 4.5 101710 75
2005-03-15 07:40:31 51°16.909 2°52.968 5.7 290 4.5 101720 75
2005-03-15 07:40:36 51°16.923 2°52.953 5.3 294 4.5 101720 75
2005-03-15 07:40:41 51°16.94 2°52.935 5.5 295 4.5 101720 75
2005-03-15 07:40:46 51°16.955 2°52.919 6.1 299 4.5 101720 75
2005-03-15 07:40:52 51°16.972 2°52.901 5.9 293 4.5 101720 75
2005-03-15 07:40:56 51°16.985 2°52.887 5.9 296 4.5 101720 75
2005-03-15 07:41:00 51°16.997 2°52.874 6 291 4.5 101720 75
2005-03-15 07:41:06 51°17.017 2°52.854 5.7 289 4.5 101720 75
2005-03-15 07:41:11 51°17.034 2°52.835 6.4 292 4.5 101720 75
2005-03-15 07:41:16 51°17.049 2°52.82 5.9 298 4.5 101720 75
2005-03-15 07:41:21 51°17.065 2°52.803 5.6 293 4.5 101720 75
2005-03-15 07:41:26 51°17.081 2°52.786 5.7 293 4.5 101720 75
2005-03-15 07:41:30 51°17.096 2°52.771 6.1 295 4.5 101720 75
2005-03-15 07:41:36 51°17.116 2°52.751 5.6 295 4.5 101720 75
2005-03-15 07:41:40 51°17.127 2°52.74 5.9 295 4.5 101720 75
2005-03-15 07:41:46 51°17.149 2°52.719 5.8 298 4.5 101720 75
2005-03-15 07:41:51 51°17.165 2°52.702 5.9 290 4.5 101720 75
2005-03-15 07:41:56 51°17.181 2°52.686 5.6 288 4.5 101720 75
2005-03-15 07:42:01 51°17.197 2°52.669 5.9 295 4.5 101720 75
2005-03-15 07:42:06 51°17.213 2°52.653 5.2 294 4.5 101720 75
2005-03-15 07:42:11 51°17.229 2°52.637 5.2 298 4.5 101720 76
2005-03-15 07:42:16 51°17.244 2°52.622 5.1 298 4.5 101720 76
2005-03-15 07:42:21 51°17.262 2°52.603 5 293 4.5 101710 76
2005-03-15 07:42:26 51°17.278 2°52.586 6.2 298 4.5 101710 76
2005-03-15 07:42:31 51°17.294 2°52.569 5.5 301 4.5 101720 76
2005-03-15 07:42:36 51°17.308 2°52.554 6 307 4.5 101720 76
2005-03-15 07:42:40 51°17.321 2°52.539 5.4 304 4.5 101710 76
2005-03-15 07:42:46 51°17.342 2°52.517 5.3 298 4.5 101710 76
2005-03-15 07:42:50 51°17.354 2°52.503 5.3 300 4.5 101720 76
2005-03-15 07:42:56 51°17.375 2°52.483 5.2 303 4.5 101720 76
2005-03-15 07:43:00 51°17.388 2°52.471 5.3 295 4.5 101720 76
2005-03-15 07:43:06 51°17.406 2°52.456 5.1 300 4.5 101720 76
2005-03-15 07:43:10 51°17.422 2°52.443 5.4 295 4.5 101710 76
2005-03-15 07:43:15 51°17.439 2°52.43 5.3 301 4.5 101710 76
2005-03-15 07:43:20 51°17.455 2°52.419 4.5 300 4.5 101720 76
2005-03-15 07:43:26 51°17.476 2°52.403 4.9 304 4.5 101720 76
2005-03-15 07:43:30 51°17.492 2°52.392 4.9 297 4.5 101720 76
2005-03-15 07:43:36 51°17.513 2°52.376 5.5 303 4.5 101720 76
2005-03-15 07:43:40 51°17.527 2°52.365 5.1 298 4.5 101720 76
2005-03-15 07:43:46 51°17.548 2°52.35 4.7 304 4.5 101720 76
2005-03-15 07:43:51 51°17.563 2°52.337 4.9 304 4.5 101720 76
2005-03-15 07:43:56 51°17.582 2°52.322 4.9 307 4.5 101720 76
2005-03-15 07:44:00 51°17.594 2°52.313 4.9 310 4.5 101720 76
2005-03-15 07:44:06 51°17.616 2°52.295 5.4 294 4.5 101720 76
2005-03-15 07:44:11 51°17.632 2°52.283 4.8 295 4.5 101720 77
2005-03-15 07:44:16 51°17.651 2°52.268 5.3 303 4.5 101720 77
2005-03-15 07:44:21 51°17.666 2°52.257 5.9 284 4.5 101720 77
2005-03-15 07:44:26 51°17.686 2°52.245 4.9 288 4.5 101720 77
2005-03-15 07:44:31 51°17.702 2°52.236 4.6 290 4.5 101720 77
2005-03-15 07:44:36 51°17.72 2°52.227 3.6 289 4.5 101720 77
2005-03-15 07:44:40 51°17.737 2°52.219 4.3 288 4.5 101720 77
2005-03-15 07:44:46 51°17.759 2°52.209 4.1 287 4.5 101720 77
2005-03-15 07:44:50 51°17.773 2°52.203 4.1 279 4.5 101720 77
2005-03-15 07:44:55 51°17.792 2°52.195 3.7 290 4.5 101720 77
2005-03-15 07:45:02 51°17.815 2°52.185 4.2 294 4.5 101720 77
2005-03-15 07:45:06 51°17.832 2°52.178 4.6 271 4.5 101720 77
2005-03-15 07:45:10 51°17.847 2°52.171 5.7 271 4.5 101720 77
2005-03-15 07:45:16 51°17.867 2°52.164 3.8 277 4.5 101720 77
2005-03-15 07:45:21 51°17.886 2°52.157 3.3 291 4.6 101720 77
2005-03-15 07:45:26 51°17.906 2°52.152 3.2 280 4.6 101720 77
2005-03-15 07:45:30 51°17.921 2°52.147 2.8 295 4.6 101720 77
2005-03-15 07:45:35 51°17.94 2°52.143 3.8 274 4.6 101720 77
2005-03-15 07:45:41 51°17.962 2°52.137 2.9 275 4.6 101720 77
2005-03-15 07:45:46 51°17.979 2°52.133 2.9 292 4.6 101720 77
2005-03-15 07:45:51 51°18 2°52.128 3.4 268 4.6 101730 77
2005-03-15 07:45:56 51°18.019 2°52.124 3.3 276 4.6 101730 77
2005-03-15 07:46:01 51°18.037 2°52.122 1.6 260 4.6 101730 77
2005-03-15 07:46:06 51°18.054 2°52.123 0.7 250 4.6 101730 77
2005-03-15 07:46:10 51°18.071 2°52.124 0.9 253 4.6 101720 77
2005-03-15 07:46:16 51°18.091 2°52.129 0.6 260 4.6 101720 77
2005-03-15 07:46:21 51°18.112 2°52.134 0.4 262 4.6 101720 77
2005-03-15 07:46:26 51°18.128 2°52.14 0.2 248 4.6 101720 77
2005-03-15 07:46:30 51°18.145 2°52.145 0.3 247 4.6 101730 77
2005-03-15 07:46:36 51°18.165 2°52.152 0.2 250 4.6 101730 77
2005-03-15 07:46:40 51°18.18 2°52.157 0.3 257 4.7 101730 77
2005-03-15 07:46:46 51°18.204 2°52.165 0.2 249 4.7 101730 77
2005-03-15 07:46:51 51°18.222 2°52.172 0.1 248 4.7 101730 77
2005-03-15 07:46:56 51°18.238 2°52.179 0.3 239 4.7 101730 77
2005-03-15 07:47:00 51°18.252 2°52.186 0.5 272 4.7 101730 78
2005-03-15 07:47:06 51°18.275 2°52.2 1.2 89 4.7 101730 78
2005-03-15 07:47:10 51°18.289 2°52.208 1.2 107 4.7 101730 78
2005-03-15 07:47:15 51°18.306 2°52.22 1.3 80 4.7 101730 78
2005-03-15 07:47:20 51°18.322 2°52.23 1.3 94 4.7 101730 78
2005-03-15 07:47:26 51°18.344 2°52.246 2 108 4.7 101730 78
2005-03-15 07:47:30 51°18.357 2°52.257 1.4 83 4.7 101730 78
2005-03-15 07:47:36 51°18.375 2°52.273 3.3 95 4.7 101730 78
2005-03-15 07:47:40 51°18.388 2°52.286 3.1 101 4.8 101730 77
2005-03-15 07:47:46 51°18.407 2°52.305 3.6 89 4.8 101730 77
2005-03-15 07:47:51 51°18.424 2°52.324 2.7 91 4.8 101730 77
2005-03-15 07:47:56 51°18.437 2°52.339 3.2 79 4.8 101730 77
2005-03-15 07:48:01 51°18.454 2°52.358 3.6 103 4.8 101730 77
2005-03-15 07:48:06 51°18.468 2°52.373 3.5 108 4.8 101730 77
2005-03-15 07:48:11 51°18.485 2°52.392 2.6 78 4.8 101730 77
2005-03-15 07:48:16 51°18.498 2°52.408 3.5 104 4.8 101730 77
2005-03-15 07:48:21 51°18.513 2°52.425 3 111 4.8 101730 77
2005-03-15 07:48:26 51°18.529 2°52.442 2.8 95 4.8 101730 77
2005-03-15 07:48:30 51°18.541 2°52.455 3.1 87 4.8 101730 77
2005-03-15 07:48:36 51°18.561 2°52.477 2.7 88 4.8 101730 77
2005-03-15 07:48:41 51°18.575 2°52.492 2.9 82 4.8 101730 77
2005-03-15 07:48:46 51°18.592 2°52.51 2.5 85 4.8 101730 77
2005-03-15 07:48:51 51°18.606 2°52.525 2.7 103 4.8 101730 77
2005-03-15 07:48:56 51°18.622 2°52.542 2.6 90 4.8 101730 77
2005-03-15 07:49:01 51°18.639 2°52.56 2.5 79 4.8 101730 77
2005-03-15 07:49:06 51°18.653 2°52.575 2.8 65 4.8 101730 77
2005-03-15 07:49:11 51°18.669 2°52.592 2.4 82 4.8 101730 77
2005-03-15 07:49:16 51°18.684 2°52.608 2.8 81 4.8 101730 77
2005-03-15 07:49:22 51°18.702 2°52.63 3.6 93 4.8 101730 77
2005-03-15 07:49:26 51°18.715 2°52.647 2.6 78 4.8 101730 77
2005-03-15 07:49:31 51°18.728 2°52.664 3.2 80 4.8 101730 77
2005-03-15 07:49:36 51°18.742 2°52.683 3.7 80 4.8 101730 77
2005-03-15 07:49:40 51°18.753 2°52.699 3.4 80 4.8 101730 77
2005-03-15 07:49:46 51°18.771 2°52.724 3.6 80 4.8 101730 77
2005-03-15 07:49:51 51°18.785 2°52.744 4.4 84 4.8 101730 77
2005-03-15 07:49:56 51°18.797 2°52.762 3.5 95 4.8 101730 77
2005-03-15 07:50:01 51°18.813 2°52.784 3.6 92 4.7 101730 77
2005-03-15 07:50:06 51°18.827 2°52.803 3.7 75 4.7 101730 77
2005-03-15 07:50:11 51°18.84 2°52.823 3.7 73 4.7 101730 77
2005-03-15 07:50:16 51°18.853 2°52.84 4.4 85 4.7 101730 77
2005-03-15 07:50:20 51°18.864 2°52.856 3.6 80 4.7 101740 77
2005-03-15 07:50:26 51°18.88 2°52.88 3.2 73 4.7 101740 77
2005-03-15 07:50:31 51°18.895 2°52.902 3.5 79 4.7 101730 77
2005-03-15 07:50:36 51°18.908 2°52.919 3 77 4.7 101730 77
2005-03-15 07:50:40 51°18.918 2°52.935 3.6 78 4.7 101740 77
2005-03-15 07:50:46 51°18.936 2°52.96 3.3 79 4.7 101740 77
2005-03-15 07:50:51 51°18.95 2°52.979 3 72 4.7 101740 77
2005-03-15 07:50:56 51°18.963 2°52.996 3.9 85 4.7 101740 77
2005-03-15 07:51:01 51°18.978 2°53.018 3.2 78 4.6 101730 77
2005-03-15 07:51:06 51°18.992 2°53.037 3.4 80 4.6 101730 77
2005-03-15 07:51:11 51°19.004 2°53.054 3.9 85 4.6 101740 77
2005-03-15 07:51:16 51°19.018 2°53.073 3.9 98 4.6 101740 77
2005-03-15 07:51:21 51°19.033 2°53.094 3.8 92 4.6 101740 78
2005-03-15 07:51:26 51°19.045 2°53.111 3.3 78 4.6 101740 78
2005-03-15 07:51:30 51°19.056 2°53.127 4 90 4.6 101730 78
2005-03-15 07:51:36 51°19.074 2°53.152 4.1 78 4.6 101730 78
2005-03-15 07:51:41 51°19.088 2°53.17 3.8 85 4.5 101740 78
2005-03-15 07:51:46 51°19.101 2°53.189 3.7 83 4.5 101740 78
2005-03-15 07:51:51 51°19.115 2°53.208 3.8 91 4.5 101730 78
2005-03-15 07:51:56 51°19.127 2°53.226 4.6 85 4.5 101730 78
2005-03-15 07:52:01 51°19.142 2°53.247 3.7 97 4.5 101740 78
2005-03-15 07:52:06 51°19.156 2°53.266 3.7 84 4.5 101740 78
2005-03-15 07:52:11 51°19.17 2°53.285 3.6 93 4.5 101740 78
2005-03-15 07:52:16 51°19.182 2°53.302 3.9 95 4.5 101740 78
2005-03-15 07:52:21 51°19.196 2°53.322 3.7 90 4.4 101740 78
2005-03-15 07:52:26 51°19.211 2°53.342 4 103 4.4 101740 78
2005-03-15 07:52:31 51°19.224 2°53.361 3.6 92 4.4 101740 79
2005-03-15 07:52:36 51°19.236 2°53.379 4.1 95 4.4 101740 79
2005-03-15 07:52:41 51°19.252 2°53.4 3.8 95 4.4 101740 79
2005-03-15 07:52:46 51°19.264 2°53.417 4 96 4.4 101740 79
2005-03-15 07:52:51 51°19.28 2°53.437 3.8 85 4.4 101740 79
2005-03-15 07:52:56 51°19.292 2°53.454 3.2 93 4.4 101740 79
2005-03-15 07:53:00 51°19.305 2°53.471 4.2 103 4.4 101740 79
2005-03-15 07:53:06 51°19.32 2°53.491 3.7 106 4.4 101740 79
2005-03-15 07:53:11 51°19.335 2°53.511 3.8 96 4.4 101740 79
2005-03-15 07:53:16 51°19.348 2°53.528 4.1 95 4.4 101740 79
2005-03-15 07:53:20 51°19.36 2°53.545 3.4 92 4.4 101740 79
2005-03-15 07:53:26 51°19.375 2°53.565 3.9 104 4.4 101740 79
2005-03-15 07:53:31 51°19.39 2°53.586 4.1 103 4.4 101740 79
2005-03-15 07:53:36 51°19.403 2°53.603 3.7 96 4.4 101740 79
2005-03-15 07:53:40 51°19.414 2°53.618 4.1 89 4.4 101740 79
2005-03-15 07:53:46 51°19.432 2°53.642 4.1 105 4.4 101740 79
2005-03-15 07:53:50 51°19.443 2°53.657 4.3 91 4.4 101770 79
2005-03-15 07:53:55 51°19.457 2°53.676 3.9 101 4.4 101770 79
2005-03-15 07:54:01 51°19.473 2°53.698 3.9 91 4.4 101730 79
2005-03-15 07:54:06 51°19.487 2°53.717 4 89 4.4 101730 79
2005-03-15 07:54:10 51°19.498 2°53.732 3.7 103 4.4 101730 79
2005-03-15 07:54:16 51°19.514 2°53.753 3.8 103 4.4 101730 79
2005-03-15 07:54:21 51°19.529 2°53.773 4.4 98 4.4 101730 79
2005-03-15 07:54:26 51°19.543 2°53.792 4.3 106 4.4 101730 79
2005-03-15 07:54:31 51°19.555 2°53.809 3.8 96 4.3 101730 79
2005-03-15 07:54:36 51°19.569 2°53.828 3.7 93 4.3 101730 79
2005-03-15 07:54:41 51°19.584 2°53.85 4.8 107 4.4 101730 79
2005-03-15 07:54:46 51°19.597 2°53.869 4.1 101 4.4 101730 79
2005-03-15 07:54:50 51°19.608 2°53.885 4 106 4.3 101740 79
2005-03-15 07:54:56 51°19.624 2°53.909 4.7 95 4.3 101740 79
2005-03-15 07:55:00 51°19.634 2°53.922 4 106 4.3 101790 79
2005-03-15 07:55:06 51°19.651 2°53.948 4.3 96 4.3 101790 79
2005-03-15 07:55:11 51°19.664 2°53.967 4.8 110 4.3 101780 79
2005-03-15 07:55:16 51°19.676 2°53.985 4.3 106 4.3 101780 79
2005-03-15 07:55:20 51°19.687 2°54 4.2 96 4.3 101780 79
2005-03-15 07:55:26 51°19.703 2°54.024 4.4 100 4.3 101780 79
2005-03-15 07:55:30 51°19.715 2°54.041 4 109 4.3 101780 79
2005-03-15 07:55:36 51°19.73 2°54.063 4.2 99 4.3 101780 79
2005-03-15 07:55:40 51°19.742 2°54.08 4.5 103 4.3 101780 79
2005-03-15 07:55:46 51°19.757 2°54.101 4.3 104 4.3 101780 79
2005-03-15 07:55:51 51°19.771 2°54.122 4.5 115 4.3 101780 79
2005-03-15 07:55:56 51°19.785 2°54.142 4 97 4.3 101780 79
2005-03-15 07:56:01 51°19.799 2°54.16 4.6 118 4.3 101780 79
2005-03-15 07:56:06 51°19.812 2°54.18 4.3 109 4.3 101780 79
2005-03-15 07:56:12 51°19.827 2°54.201 4 93 4.3 101780 79
2005-03-15 07:56:16 51°19.84 2°54.218 3.8 103 4.3 101780 79
2005-03-15 07:56:21 51°19.854 2°54.237 3.5 105 4.3 101780 79
2005-03-15 07:56:26 51°19.867 2°54.256 3.9 106 4.3 101780 79
2005-03-15 07:56:31 51°19.879 2°54.273 3.9 107 4.3 101740 79
2005-03-15 07:56:36 51°19.893 2°54.293 3.9 105 4.3 101740 79
2005-03-15 07:56:41 51°19.906 2°54.312 4.5 104 4.3 101740 79
2005-03-15 07:56:46 51°19.921 2°54.333 3.8 107 4.3 101740 79
2005-03-15 07:56:51 51°19.933 2°54.351 3.8 111 4.3 101740 79
2005-03-15 07:56:56 51°19.947 2°54.37 4 115 4.3 101740 79
2005-03-15 07:57:01 51°19.96 2°54.39 4.3 112 4.3 101740 79
2005-03-15 07:57:06 51°19.974 2°54.408 4.1 111 4.3 101740 79
2005-03-15 07:57:11 51°19.988 2°54.43 3.8 111 4.3 101740 79
2005-03-15 07:57:16 51°20.001 2°54.448 4.5 110 4.3 101740 79
2005-03-15 07:57:21 51°20.015 2°54.469 3.7 100 4.3 101740 79
2005-03-15 07:57:26 51°20.029 2°54.488 3.8 113 4.3 101740 79
2005-03-15 07:57:31 51°20.041 2°54.506 4.3 108 4.3 101740 79
2005-03-15 07:57:36 51°20.055 2°54.525 3.7 103 4.3 101740 79
2005-03-15 07:57:41 51°20.07 2°54.546 4 118 4.3 101740 79
2005-03-15 07:57:46 51°20.082 2°54.563 4.2 101 4.3 101740 79
2005-03-15 07:57:51 51°20.096 2°54.582 4.1 120 4.3 101740 79
2005-03-15 07:57:56 51°20.109 2°54.602 3.9 117 4.3 101740 79
2005-03-15 07:58:00 51°20.12 2°54.617 4.1 114 4.3 101740 79
2005-03-15 07:58:06 51°20.138 2°54.642 3.8 101 4.3 101740 79
2005-03-15 07:58:11 51°20.151 2°54.662 4.1 116 4.3 101740 79
2005-03-15 07:58:16 51°20.165 2°54.682 4.7 95 4.3 101740 79
2005-03-15 07:58:21 51°20.178 2°54.7 3.8 107 4.3 101740 79
2005-03-15 07:58:26 51°20.192 2°54.72 4.2 122 4.3 101740 79
2005-03-15 07:58:31 51°20.206 2°54.739 4.4 113 4.3 101780 79
2005-03-15 07:58:36 51°20.22 2°54.759 3.9 114 4.3 101780 79
2005-03-15 07:58:41 51°20.232 2°54.775 4 108 4.3 101790 79
2005-03-15 07:58:46 51°20.245 2°54.795 3.8 98 4.3 101790 79
2005-03-15 07:58:51 51°20.259 2°54.814 3.7 98 4.3 101790 79
2005-03-15 07:58:56 51°20.272 2°54.834 4.3 108 4.3 101790 79
2005-03-15 07:59:00 51°20.283 2°54.85 3.8 116 4.3 101800 79
2005-03-15 07:59:06 51°20.299 2°54.873 3.8 115 4.3 101800 79
2005-03-15 07:59:11 51°20.314 2°54.895 4.1 103 4.4 101800 79
2005-03-15 07:59:16 51°20.326 2°54.912 3.9 119 4.4 101800 79
2005-03-15 07:59:20 51°20.337 2°54.928 3.2 106 4.3 101740 79
2005-03-15 07:59:26 51°20.353 2°54.951 3.6 112 4.3 101740 79
2005-03-15 07:59:31 51°20.369 2°54.973 3.5 94 4.4 101740 79
2005-03-15 07:59:36 51°20.381 2°54.991 3.6 107 4.4 101740 79
2005-03-15 07:59:41 51°20.396 2°55.012 4.3 108 4.4 101740 79
2005-03-15 07:59:46 51°20.408 2°55.03 4 105 4.4 101740 79
2005-03-15 07:59:51 51°20.423 2°55.052 3.7 101 4.4 101740 79
2005-03-15 07:59:56 51°20.435 2°55.069 4.6 106 4.4 101740 79
2005-03-15 08:00:01 51°20.449 2°55.089 4.2 110 4.4 101740 79
2005-03-15 08:00:06 51°20.463 2°55.108 3.5 105 4.4 101740 79
2005-03-15 08:00:10 51°20.475 2°55.126 4.4 103 4.4 101740 79
2005-03-15 08:00:16 51°20.49 2°55.148 3.8 112 4.4 101740 79
2005-03-15 08:00:21 51°20.505 2°55.169 4.3 107 4.4 101740 79
2005-03-15 08:00:26 51°20.519 2°55.189 3.5 117 4.4 101740 79
2005-03-15 08:00:30 51°20.53 2°55.205 2.2 88 4.4 101740 79
2005-03-15 08:00:36 51°20.545 2°55.226 3.3 106 4.4 101740 79
2005-03-15 08:00:41 51°20.559 2°55.245 4 110 4.4 101790 79
2005-03-15 08:00:46 51°20.574 2°55.267 3.8 113 4.4 101790 79
2005-03-15 08:00:51 51°20.588 2°55.286 3.6 109 4.4 101790 79
2005-03-15 08:00:56 51°20.602 2°55.306 3.2 106 4.4 101790 79
2005-03-15 08:01:01 51°20.614 2°55.323 3.9 119 4.4 101790 79
2005-03-15 08:01:06 51°20.628 2°55.343 4.1 109 4.4 101790 79
2005-03-15 08:01:11 51°20.642 2°55.362 4 123 4.4 101790 79
2005-03-15 08:01:16 51°20.656 2°55.381 3.7 106 4.4 101790 79
2005-03-15 08:01:20 51°20.667 2°55.397 4.5 109 4.4 101790 79
2005-03-15 08:01:26 51°20.683 2°55.421 3.9 106 4.4 101790 79
2005-03-15 08:01:31 51°20.698 2°55.442 3.6 106 4.4 101790 79
2005-03-15 08:01:36 51°20.71 2°55.46 4.2 117 4.4 101790 79
2005-03-15 08:01:40 51°20.721 2°55.476 4.9 118 4.4 101790 79
2005-03-15 08:01:46 51°20.737 2°55.5 4.6 115 4.4 101790 79
2005-03-15 08:01:51 51°20.752 2°55.521 4.1 115 4.4 101790 79
2005-03-15 08:01:56 51°20.764 2°55.539 4 103 4.4 101790 79
2005-03-15 08:02:01 51°20.78 2°55.56 4.1 114 4.4 101790 79
2005-03-15 08:02:06 51°20.792 2°55.578 3.6 126 4.4 101790 79
2005-03-15 08:02:11 51°20.807 2°55.599 3.5 124 4.4 101790 79
2005-03-15 08:02:16 51°20.819 2°55.617 3.2 122 4.4 101790 79
2005-03-15 08:02:21 51°20.833 2°55.636 4.1 96 4.4 101800 79
2005-03-15 08:02:26 51°20.847 2°55.656 5 117 4.4 101800 79
2005-03-15 08:02:30 51°20.859 2°55.674 3 114 4.4 101790 79
2005-03-15 08:02:36 51°20.874 2°55.695 3.6 103 4.4 101790 79
2005-03-15 08:02:41 51°20.889 2°55.717 3.7 107 4.4 101790 79
2005-03-15 08:02:46 51°20.903 2°55.737 3.7 125 4.4 101790 79
2005-03-15 08:02:50 51°20.914 2°55.753 3.6 115 4.4 101790 79
2005-03-15 08:02:56 51°20.929 2°55.774 3.7 108 4.4 101790 79
2005-03-15 08:03:01 51°20.942 2°55.794 3.5 124 4.4 101790 79
2005-03-15 08:03:06 51°20.957 2°55.816 3.7 119 4.4 101790 79
2005-03-15 08:03:11 51°20.971 2°55.836 3.5 105 4.5 101790 79
2005-03-15 08:03:16 51°20.985 2°55.857 3.6 114 4.5 101790 79
2005-03-15 08:03:21 51°20.997 2°55.874 4.3 125 4.5 101790 79
2005-03-15 08:03:26 51°21.012 2°55.896 3.6 101 4.5 101790 79
2005-03-15 08:03:30 51°21.023 2°55.912 2.7 112 4.4 101790 79
2005-03-15 08:03:36 51°21.038 2°55.933 3.7 123 4.4 101790 79
2005-03-15 08:03:40 51°21.049 2°55.949 3.7 124 4.5 101790 79
2005-03-15 08:03:46 51°21.067 2°55.974 3.5 122 4.5 101790 79
2005-03-15 08:03:50 51°21.078 2°55.99 3.5 117 4.5 101790 79
2005-03-15 08:03:56 51°21.093 2°56.012 4 101 4.5 101790 79
2005-03-15 08:04:01 51°21.107 2°56.031 3.6 112 4.5 101800 79
2005-03-15 08:04:06 51°21.122 2°56.052 3.9 114 4.5 101800 79
2005-03-15 08:04:10 51°21.133 2°56.067 3.8 109 4.5 101790 79
2005-03-15 08:04:16 51°21.147 2°56.09 3.7 111 4.5 101790 79
2005-03-15 08:04:20 51°21.158 2°56.105 3.5 100 4.5 101790 79
2005-03-15 08:04:26 51°21.174 2°56.13 3.8 117 4.5 101790 79
2005-03-15 08:04:30 51°21.186 2°56.148 4.2 104 4.5 101790 79
2005-03-15 08:04:35 51°21.199 2°56.168 3 113 4.5 101790 79
2005-03-15 08:04:41 51°21.215 2°56.192 4.1 111 4.5 101790 78
2005-03-15 08:04:46 51°21.228 2°56.209 3.6 100 4.5 101790 78
2005-03-15 08:04:51 51°21.241 2°56.23 4 115 4.5 101790 78
2005-03-15 08:04:56 51°21.255 2°56.249 3.5 95 4.5 101790 78
2005-03-15 08:05:02 51°21.27 2°56.273 4.1 110 4.5 101800 78
2005-03-15 08:05:06 51°21.283 2°56.291 3.4 123 4.5 101800 78
2005-03-15 08:05:10 51°21.294 2°56.307 3.8 104 4.5 101800 78
2005-03-15 08:05:16 51°21.309 2°56.329 3.6 114 4.5 101800 78
2005-03-15 08:05:21 51°21.322 2°56.349 3.6 115 4.6 101740 78
2005-03-15 08:05:26 51°21.337 2°56.371 3.6 117 4.6 101740 78
2005-03-15 08:05:30 51°21.348 2°56.387 3.6 103 4.6 101740 78
2005-03-15 08:05:36 51°21.363 2°56.409 4 109 4.6 101740 78
2005-03-15 08:05:40 51°21.373 2°56.425 3.4 99 4.6 101740 78
2005-03-15 08:05:46 51°21.39 2°56.452 3.5 97 4.6 101740 78
2005-03-15 08:05:51 51°21.402 2°56.47 3.4 104 4.6 101780 78
2005-03-15 08:05:56 51°21.415 2°56.49 4.2 111 4.6 101780 78
2005-03-15 08:06:01 51°21.43 2°56.512 4.3 102 4.6 101750 78
2005-03-15 08:06:06 51°21.443 2°56.533 3.9 98 4.6 101750 78
2005-03-15 08:06:11 51°21.456 2°56.553 3.9 116 4.6 101740 78
2005-03-15 08:06:16 51°21.468 2°56.571 3.7 127 4.6 101740 78
2005-03-15 08:06:20 51°21.48 2°56.589 4.2 114 4.6 101740 78
2005-03-15 08:06:26 51°21.496 2°56.612 4.1 111 4.6 101740 78
2005-03-15 08:06:31 51°21.51 2°56.632 3.5 117 4.6 101740 78
2005-03-15 08:06:36 51°21.522 2°56.649 3.4 102 4.6 101740 78
2005-03-15 08:06:40 51°21.533 2°56.666 3.6 113 4.6 101740 78
2005-03-15 08:06:46 51°21.549 2°56.689 4 124 4.6 101740 78
2005-03-15 08:06:50 51°21.561 2°56.707 4 117 4.6 101740 78
2005-03-15 08:06:55 51°21.575 2°56.727 3.6 104 4.6 101740 78
2005-03-15 08:07:01 51°21.589 2°56.749 4.1 113 4.6 101740 78
2005-03-15 08:07:06 51°21.603 2°56.769 3.5 99 4.6 101740 78
2005-03-15 08:07:10 51°21.615 2°56.787 3.3 95 4.6 101740 78
2005-03-15 08:07:16 51°21.629 2°56.809 3.8 108 4.6 101740 78
2005-03-15 08:07:21 51°21.643 2°56.829 3.5 108 4.6 101750 78
2005-03-15 08:07:26 51°21.658 2°56.85 3.5 106 4.6 101750 78
2005-03-15 08:07:31 51°21.67 2°56.869 3.9 111 4.6 101740 78
2005-03-15 08:07:36 51°21.683 2°56.888 3.2 118 4.6 101740 78
2005-03-15 08:07:42 51°21.699 2°56.912 4.4 111 4.6 101740 78
2005-03-15 08:07:46 51°21.711 2°56.931 3.5 107 4.6 101740 78
2005-03-15 08:07:50 51°21.722 2°56.947 3.7 120 4.7 101740 78
2005-03-15 08:07:56 51°21.737 2°56.969 4 109 4.7 101740 78
2005-03-15 08:08:01 51°21.75 2°56.989 4.8 109 4.6 101750 78
2005-03-15 08:08:06 51°21.763 2°57.01 4.2 108 4.6 101750 78
2005-03-15 08:08:11 51°21.777 2°57.03 3.9 106 4.6 101750 78
2005-03-15 08:08:16 51°21.79 2°57.05 3.7 88 4.6 101750 78
2005-03-15 08:08:20 51°21.801 2°57.066 3.3 98 4.6 101750 78
2005-03-15 08:08:26 51°21.819 2°57.092 3.9 106 4.6 101750 78
2005-03-15 08:08:30 51°21.83 2°57.108 3.9 116 4.7 101750 78
2005-03-15 08:08:36 51°21.845 2°57.131 3.7 115 4.7 101750 78
2005-03-15 08:08:41 51°21.858 2°57.151 3.6 109 4.7 101750 78
2005-03-15 08:08:46 51°21.873 2°57.172 3.8 102 4.7 101750 78
2005-03-15 08:08:51 51°21.885 2°57.191 3.3 112 4.7 101750 78
2005-03-15 08:08:56 51°21.899 2°57.211 4.6 120 4.7 101750 78
2005-03-15 08:09:01 51°21.912 2°57.231 3.7 103 4.7 101750 78
2005-03-15 08:09:06 51°21.925 2°57.252 4.2 114 4.7 101750 78
2005-03-15 08:09:11 51°21.939 2°57.273 4.1 116 4.7 101750 78
2005-03-15 08:09:16 51°21.953 2°57.293 3.9 105 4.7 101750 78
2005-03-15 08:09:21 51°21.966 2°57.313 3.6 108 4.7 101750 78
2005-03-15 08:09:26 51°21.981 2°57.335 3.3 96 4.7 101750 78
2005-03-15 08:09:30 51°21.992 2°57.351 3.5 109 4.7 101750 78
2005-03-15 08:09:36 51°22.007 2°57.374 4.1 99 4.7 101750 78
2005-03-15 08:09:41 51°22.02 2°57.394 4.7 108 4.7 101750 78
2005-03-15 08:09:46 51°22.035 2°57.417 3.4 101 4.7 101750 78
2005-03-15 08:09:50 51°22.045 2°57.433 4 102 4.7 101750 78
2005-03-15 08:09:56 51°22.06 2°57.456 3.4 114 4.7 101750 78
2005-03-15 08:10:00 51°22.071 2°57.472 3.9 108 4.7 101750 78
2005-03-15 08:10:06 51°22.088 2°57.499 3.5 97 4.7 101750 78
2005-03-15 08:10:11 51°22.101 2°57.517 3.5 99 4.7 101750 78
2005-03-15 08:10:16 51°22.115 2°57.537 3.5 112 4.7 101750 78
2005-03-15 08:10:21 51°22.13 2°57.559 3.2 97 4.7 101750 78
2005-03-15 08:10:26 51°22.143 2°57.58 4.1 109 4.7 101750 78
2005-03-15 08:10:31 51°22.157 2°57.6 3.3 108 4.7 101750 78
2005-03-15 08:10:36 51°22.169 2°57.618 3.6 94 4.7 101750 78
2005-03-15 08:10:41 51°22.184 2°57.64 4.2 93 4.7 101750 78
2005-03-15 08:10:46 51°22.197 2°57.66 4.4 109 4.7 101750 78
2005-03-15 08:10:51 51°22.211 2°57.68 3.8 97 4.7 101750 78
2005-03-15 08:10:56 51°22.223 2°57.699 3.2 103 4.7 101750 78
2005-03-15 08:11:00 51°22.234 2°57.715 3.7 103 4.7 101750 78
2005-03-15 08:11:06 51°22.25 2°57.74 3.5 105 4.7 101750 78
2005-03-15 08:11:11 51°22.265 2°57.762 3.8 114 4.7 101750 78
2005-03-15 08:11:16 51°22.277 2°57.781 4.1 110 4.7 101750 78
2005-03-15 08:11:20 51°22.288 2°57.797 3.9 88 4.7 101750 78
2005-03-15 08:11:26 51°22.304 2°57.821 4 96 4.7 101750 78
2005-03-15 08:11:31 51°22.318 2°57.843 3.6 104 4.7 101750 78
2005-03-15 08:11:36 51°22.331 2°57.862 4 106 4.7 101750 78
2005-03-15 08:11:41 51°22.346 2°57.884 3.9 98 4.7 101750 78
2005-03-15 08:11:46 51°22.359 2°57.904 3.9 91 4.7 101750 78
2005-03-15 08:11:51 51°22.371 2°57.923 4 106 4.7 101750 78
2005-03-15 08:11:56 51°22.386 2°57.945 3.8 108 4.7 101750 78
2005-03-15 08:12:01 51°22.399 2°57.965 4.1 94 4.7 101760 78
2005-03-15 08:12:06 51°22.412 2°57.984 3.4 98 4.7 101760 78
2005-03-15 08:12:11 51°22.426 2°58.006 3.9 95 4.7 101750 78
2005-03-15 08:12:16 51°22.439 2°58.024 3.7 87 4.7 101750 78
2005-03-15 08:12:20 51°22.449 2°58.041 3.9 100 4.7 101750 78
2005-03-15 08:12:26 51°22.467 2°58.068 3.3 98 4.7 101750 78
2005-03-15 08:12:30 51°22.478 2°58.085 3.6 116 4.7 101750 78
2005-03-15 08:12:36 51°22.493 2°58.107 3.8 92 4.7 101750 78
2005-03-15 08:12:40 51°22.503 2°58.124 3.6 106 4.7 101750 78
2005-03-15 08:12:46 51°22.521 2°58.15 3.4 96 4.7 101750 78
2005-03-15 08:12:51 51°22.533 2°58.169 4.2 88 4.7 101750 78
2005-03-15 08:12:56 51°22.547 2°58.19 4.1 102 4.7 101750 78
2005-03-15 08:13:01 51°22.562 2°58.214 3.6 104 4.7 101750 78
2005-03-15 08:13:06 51°22.575 2°58.233 3.7 98 4.7 101750 78
2005-03-15 08:13:10 51°22.584 2°58.248 3.7 104 4.7 101750 78
2005-03-15 08:13:16 51°22.6 2°58.273 4.6 97 4.7 101750 78
2005-03-15 08:13:20 51°22.611 2°58.291 3.7 94 4.7 101750 78
2005-03-15 08:13:26 51°22.627 2°58.316 4.1 92 4.7 101750 78
2005-03-15 08:13:32 51°22.643 2°58.34 3.4 107 4.7 101750 78
2005-03-15 08:13:36 51°22.653 2°58.357 4.4 102 4.7 101750 78
2005-03-15 08:13:40 51°22.664 2°58.373 4.1 117 4.7 101750 78
2005-03-15 08:13:46 51°22.679 2°58.397 3.6 95 4.7 101750 78
2005-03-15 08:13:51 51°22.694 2°58.419 4.2 106 4.7 101750 78
2005-03-15 08:13:56 51°22.706 2°58.437 3 73 4.7 101750 78
2005-03-15 08:14:01 51°22.72 2°58.457 3.6 103 4.7 101750 78
2005-03-15 08:14:06 51°22.735 2°58.479 4 95 4.7 101750 78
2005-03-15 08:14:10 51°22.746 2°58.496 3.6 99 4.7 101750 78
2005-03-15 08:14:15 51°22.759 2°58.516 3.5 116 4.7 101750 78
2005-03-15 08:14:20 51°22.772 2°58.534 3.4 97 4.7 101750 78
2005-03-15 08:14:26 51°22.79 2°58.56 3.9 106 4.7 101750 78
2005-03-15 08:14:31 51°22.803 2°58.58 4.2 109 4.7 101760 78
2005-03-15 08:14:36 51°22.815 2°58.599 4 103 4.7 101760 78
2005-03-15 08:14:40 51°22.828 2°58.618 3.8 96 4.7 101760 78
2005-03-15 08:14:46 51°22.845 2°58.643 3.9 98 4.7 101760 78
2005-03-15 08:14:51 51°22.859 2°58.663 3.6 88 4.7 101750 78
2005-03-15 08:14:56 51°22.871 2°58.682 4.2 98 4.7 101750 78
2005-03-15 08:15:00 51°22.882 2°58.698 4.6 109 4.7 101750 78
2005-03-15 08:15:06 51°22.9 2°58.724 3.5 88 4.7 101750 78
2005-03-15 08:15:11 51°22.913 2°58.742 3.1 94 4.7 101750 78
2005-03-15 08:15:16 51°22.926 2°58.763 3.7 88 4.7 101750 78
2005-03-15 08:15:20 51°22.937 2°58.779 4.1 98 4.7 101760 78
2005-03-15 08:15:26 51°22.955 2°58.806 4 109 4.7 101760 78
2005-03-15 08:15:31 51°22.968 2°58.826 3.6 103 4.7 101760 78
2005-03-15 08:15:36 51°22.98 2°58.844 3.9 82 4.7 101760 78
2005-03-15 08:15:41 51°22.995 2°58.866 3.8 87 4.7 101760 78
2005-03-15 08:15:46 51°23.007 2°58.885 3.5 97 4.7 101760 78
2005-03-15 08:15:50 51°23.019 2°58.904 3.6 95 4.8 101760 78
2005-03-15 08:15:55 51°23.033 2°58.924 4.2 95 4.8 101760 78
2005-03-15 08:16:01 51°23.049 2°58.949 3.7 100 4.8 101760 78
2005-03-15 08:16:06 51°23.061 2°58.968 4 89 4.8 101760 78
2005-03-15 08:16:10 51°23.074 2°58.986 3.8 98 4.8 101760 78
2005-03-15 08:16:16 51°23.091 2°59.011 3.5 104 4.8 101760 78
2005-03-15 08:16:21 51°23.104 2°59.031 3.5 101 4.8 101760 78
2005-03-15 08:16:26 51°23.117 2°59.049 4 104 4.8 101760 78
2005-03-15 08:16:31 51°23.132 2°59.071 4.1 105 4.8 101750 78
2005-03-15 08:16:36 51°23.144 2°59.089 4.4 105 4.8 101750 78
2005-03-15 08:16:41 51°23.158 2°59.11 3.9 101 4.8 101760 78
2005-03-15 08:16:46 51°23.171 2°59.13 3.4 102 4.8 101760 78
2005-03-15 08:16:51 51°23.184 2°59.151 3.5 89 4.8 101760 78
2005-03-15 08:16:56 51°23.198 2°59.173 4.1 103 4.8 101760 78
2005-03-15 08:17:01 51°23.212 2°59.196 4.1 107 4.8 101760 78
2005-03-15 08:17:06 51°23.225 2°59.217 4 119 4.8 101760 78
2005-03-15 08:17:11 51°23.239 2°59.238 4.3 110 4.8 101810 78
2005-03-15 08:17:16 51°23.25 2°59.258 4.1 84 4.8 101810 78
2005-03-15 08:17:21 51°23.263 2°59.279 4.8 108 4.8 101800 78
2005-03-15 08:17:26 51°23.277 2°59.303 3.6 107 4.8 101800 78
2005-03-15 08:17:30 51°23.288 2°59.32 3.8 95 4.8 101810 78
2005-03-15 08:17:36 51°23.302 2°59.344 4.3 108 4.8 101810 78
2005-03-15 08:17:41 51°23.315 2°59.365 3.2 99 4.8 101760 78
2005-03-15 08:17:46 51°23.329 2°59.388 4.3 93 4.8 101760 78
2005-03-15 08:17:50 51°23.339 2°59.405 4.3 110 4.8 101800 78
2005-03-15 08:17:56 51°23.353 2°59.429 5 103 4.8 101800 78
2005-03-15 08:17:59 51°23.362 2°59.444 3.8 106 4.8 101760 78
2005-03-15 08:18:06 51°23.379 2°59.472 4.3 96 4.8 101760 78
2005-03-15 08:18:10 51°23.391 2°59.491 4.8 111 4.8 101760 78
2005-03-15 08:18:16 51°23.406 2°59.515 4.4 118 4.8 101760 78
2005-03-15 08:18:21 51°23.42 2°59.539 4.1 109 4.8 101760 78
2005-03-15 08:18:26 51°23.432 2°59.558 3.6 89 4.8 101760 78
2005-03-15 08:18:30 51°23.444 2°59.578 4.5 103 4.8 101760 78
2005-03-15 08:18:36 51°23.458 2°59.601 4.1 113 4.8 101760 78
2005-03-15 08:18:41 51°23.473 2°59.625 4 114 4.8 101760 78
2005-03-15 08:18:46 51°23.485 2°59.643 4 103 4.8 101760 78
2005-03-15 08:18:52 51°23.502 2°59.669 4.2 112 4.8 101760 78
2005-03-15 08:18:56 51°23.512 2°59.687 4.6 117 4.8 101760 78
2005-03-15 08:19:01 51°23.527 2°59.71 4.2 119 4.8 101760 78
2005-03-15 08:19:06 51°23.54 2°59.732 4.2 109 4.8 101760 78
2005-03-15 08:19:11 51°23.553 2°59.754 4.2 108 4.8 101760 78
2005-03-15 08:19:16 51°23.565 2°59.773 4.2 116 4.8 101760 78
2005-03-15 08:19:20 51°23.577 2°59.792 4 94 4.8 101760 78
2005-03-15 08:19:26 51°23.592 2°59.818 4 114 4.8 101760 78
2005-03-15 08:19:31 51°23.605 2°59.839 4.6 119 4.8 101760 78
2005-03-15 08:19:36 51°23.617 2°59.859 3.5 104 4.8 101760 78
2005-03-15 08:19:41 51°23.63 2°59.88 4.1 110 4.8 101760 78
2005-03-15 08:19:46 51°23.643 2°59.902 4.6 115 4.8 101760 78
2005-03-15 08:19:51 51°23.658 2°59.925 4.1 110 4.9 101760 78
2005-03-15 08:19:56 51°23.67 2°59.944 4.3 117 4.9 101760 78
2005-03-15 08:20:00 51°23.682 2°59.964 4.7 120 4.8 101760 78
2005-03-15 08:20:06 51°23.696 2°59.987 3.9 106 4.8 101760 78
2005-03-15 08:20:10 51°23.708 3°0.006 3.9 103 4.9 101760 78
2005-03-15 08:20:16 51°23.722 3°0.029 3.4 118 4.9 101760 78
2005-03-15 08:20:20 51°23.733 3°0.046 3.5 102 4.9 101760 78
2005-03-15 08:20:26 51°23.75 3°0.074 4.5 114 4.9 101760 78
2005-03-15 08:20:30 51°23.76 3°0.091 4.1 114 4.9 101760 78
2005-03-15 08:20:36 51°23.774 3°0.114 3.3 118 4.9 101760 78
2005-03-15 08:20:40 51°23.785 3°0.131 4.1 119 4.9 101760 78
2005-03-15 08:20:46 51°23.802 3°0.16 2.9 108 4.9 101760 78
2005-03-15 08:20:50 51°23.812 3°0.177 4.7 114 4.9 101760 78
2005-03-15 08:20:55 51°23.825 3°0.198 4.3 122 4.9 101760 78
2005-03-15 08:21:01 51°23.841 3°0.224 4.4 112 4.9 101800 78
2005-03-15 08:21:06 51°23.854 3°0.245 3.9 114 4.9 101800 78
2005-03-15 08:21:11 51°23.867 3°0.267 4.2 107 4.9 101760 78
2005-03-15 08:21:16 51°23.878 3°0.286 4 122 4.9 101760 78
2005-03-15 08:21:21 51°23.892 3°0.31 3.9 117 4.9 101760 78
2005-03-15 08:21:26 51°23.905 3°0.331 3.5 115 4.9 101760 78
2005-03-15 08:21:30 51°23.916 3°0.348 3.7 107 4.9 101760 78
2005-03-15 08:21:35 51°23.928 3°0.37 4.1 118 4.9 101760 78
2005-03-15 08:21:41 51°23.942 3°0.394 4 117 4.9 101760 78
2005-03-15 08:21:47 51°23.958 3°0.419 3.2 110 4.9 101760 78
2005-03-15 08:21:50 51°23.966 3°0.434 3.7 108 4.9 101760 78
2005-03-15 08:21:56 51°23.98 3°0.458 3.7 120 4.9 101760 78
2005-03-15 08:22:01 51°23.994 3°0.479 3.4 123 4.9 101760 78
2005-03-15 08:22:06 51°24.008 3°0.502 3.4 122 4.9 101760 78
2005-03-15 08:22:10 51°24.017 3°0.517 4 118 4.9 101760 78
2005-03-15 08:22:16 51°24.032 3°0.543 3.8 121 4.9 101760 78
2005-03-15 08:22:21 51°24.046 3°0.567 3.4 112 4.9 101760 78
2005-03-15 08:22:26 51°24.058 3°0.586 3.5 126 4.9 101760 78
2005-03-15 08:22:30 51°24.069 3°0.605 3.4 122 5 101760 78
2005-03-15 08:22:36 51°24.084 3°0.628 3.6 122 5 101760 78
2005-03-15 08:22:41 51°24.096 3°0.65 3.9 119 5 101760 78
2005-03-15 08:22:46 51°24.109 3°0.671 4.8 122 5 101760 78
2005-03-15 08:22:51 51°24.123 3°0.694 4.2 120 5 101760 78
2005-03-15 08:22:56 51°24.135 3°0.713 4.2 109 5 101760 78
2005-03-15 08:23:01 51°24.148 3°0.734 3.5 122 5 101760 78
2005-03-15 08:23:06 51°24.162 3°0.757 4 128 5 101760 78
2005-03-15 08:23:10 51°24.172 3°0.774 3.6 125 5 101760 78
2005-03-15 08:23:15 51°24.185 3°0.795 3.8 114 5 101760 78
2005-03-15 08:23:21 51°24.2 3°0.821 4.3 104 5 101760 78
2005-03-15 08:23:26 51°24.212 3°0.842 4.3 128 5 101760 78
2005-03-15 08:23:30 51°24.222 3°0.859 4 119 5 101760 78
2005-03-15 08:23:36 51°24.235 3°0.883 3.5 122 5 101760 78
2005-03-15 08:23:41 51°24.249 3°0.906 3.8 116 5 101760 78
2005-03-15 08:23:46 51°24.261 3°0.928 4.5 119 5 101760 78
2005-03-15 08:23:51 51°24.273 3°0.948 5.2 129 5 101760 77
2005-03-15 08:23:56 51°24.285 3°0.969 4.6 123 5 101760 77
2005-03-15 08:23:59 51°24.293 3°0.984 3.9 114 5 101760 78
2005-03-15 08:24:06 51°24.311 3°1.015 3.5 111 5 101760 78
2005-03-15 08:24:11 51°24.323 3°1.037 4.2 112 5 101760 77
2005-03-15 08:24:16 51°24.334 3°1.056 4.2 118 5 101760 77
2005-03-15 08:24:21 51°24.346 3°1.078 4.6 112 5 101760 77
2005-03-15 08:24:26 51°24.359 3°1.101 3.2 113 5 101760 77
2005-03-15 08:24:30 51°24.369 3°1.119 4.1 112 5 101760 77
2005-03-15 08:24:36 51°24.382 3°1.143 3.8 119 5 101760 77
2005-03-15 08:24:40 51°24.392 3°1.16 4.1 118 5 101760 77
2005-03-15 08:24:46 51°24.407 3°1.185 3.4 103 5 101760 77
2005-03-15 08:24:50 51°24.417 3°1.205 4.2 126 5 101760 77
2005-03-15 08:24:56 51°24.431 3°1.228 4.2 116 5 101760 77
2005-03-15 08:25:01 51°24.444 3°1.252 3.9 116 5 101750 78
2005-03-15 08:25:06 51°24.455 3°1.271 3.5 112 5 101750 78
2005-03-15 08:25:10 51°24.465 3°1.287 3.8 114 5 101760 78
2005-03-15 08:25:16 51°24.48 3°1.313 4.2 121 5 101760 78
2005-03-15 08:25:20 51°24.49 3°1.33 3.7 126 5 101760 78
2005-03-15 08:25:26 51°24.506 3°1.357 3.6 121 5 101760 78
2005-03-15 08:25:30 51°24.515 3°1.375 3.4 102 5 101760 78
2005-03-15 08:25:35 51°24.528 3°1.396 3.9 114 5 101760 78
2005-03-15 08:25:41 51°24.541 3°1.42 3.9 110 5 101750 78
2005-03-15 08:25:46 51°24.554 3°1.441 3.6 119 5 101750 78
2005-03-15 08:25:51 51°24.567 3°1.463 3.7 122 5 101760 78
2005-03-15 08:25:56 51°24.579 3°1.484 3.8 102 5 101760 78
2005-03-15 08:26:00 51°24.591 3°1.504 3.5 117 5 101760 78
2005-03-15 08:26:06 51°24.605 3°1.527 4.1 124 5 101760 78
2005-03-15 08:26:10 51°24.616 3°1.546 3.3 116 5 101760 78
2005-03-15 08:26:16 51°24.63 3°1.569 3.8 109 5 101760 78
2005-03-15 08:26:22 51°24.645 3°1.595 3.5 107 5 101760 78
2005-03-15 08:26:26 51°24.657 3°1.615 3.2 105 5 101760 78
2005-03-15 08:26:31 51°24.668 3°1.634 3.6 106 5 101750 78
2005-03-15 08:26:36 51°24.682 3°1.658 3.7 99 5 101750 78
2005-03-15 08:26:40 51°24.691 3°1.673 3.4 115 5 101760 78
2005-03-15 08:26:46 51°24.707 3°1.701 3.5 118 5 101760 78
2005-03-15 08:26:51 51°24.72 3°1.722 3.8 113 5 101760 78
2005-03-15 08:26:55 51°24.73 3°1.739 3.8 116 5 101760 78
2005-03-15 08:27:00 51°24.742 3°1.758 3.9 117 5.1 101760 78
2005-03-15 08:27:06 51°24.757 3°1.784 3 110 5.1 101760 78
2005-03-15 08:27:11 51°24.771 3°1.808 4 110 5.1 101760 78
2005-03-15 08:27:16 51°24.782 3°1.827 3.7 118 5.1 101760 78
2005-03-15 08:27:21 51°24.797 3°1.85 3.6 129 5.1 101760 78
2005-03-15 08:27:26 51°24.808 3°1.869 3.2 120 5.1 101760 78
2005-03-15 08:27:31 51°24.822 3°1.892 4.1 125 5 101760 78
2005-03-15 08:27:35 51°24.832 3°1.91 3.3 116 5 101760 78
2005-03-15 08:27:40 51°24.846 3°1.931 3.6 117 5 101760 78
2005-03-15 08:27:46 51°24.859 3°1.954 4.2 128 5 101760 78
2005-03-15 08:27:50 51°24.869 3°1.971 3.6 124 5.1 101760 78
2005-03-15 08:27:56 51°24.885 3°1.999 3.7 105 5.1 101760 78
2005-03-15 08:28:02 51°24.899 3°2.022 4 107 5.1 101770 78
2005-03-15 08:28:06 51°24.911 3°2.041 3.4 120 5.1 101770 78
2005-03-15 08:28:10 51°24.92 3°2.055 3.6 114 5.1 101810 78
2005-03-15 08:28:17 51°24.937 3°2.085 4 114 5.1 101810 78
2005-03-15 08:28:20 51°24.944 3°2.098 4.8 115 5.1 101760 78
2005-03-15 08:28:26 51°24.961 3°2.125 4 121 5.1 101760 78
2005-03-15 08:28:31 51°24.973 3°2.147 3.8 111 5.1 101760 78
2005-03-15 08:28:36 51°24.984 3°2.165 3.7 119 5.1 101760 78
2005-03-15 08:28:41 51°24.997 3°2.187 3.1 108 5.1 101770 78
2005-03-15 08:28:46 51°25.011 3°2.209 3.4 113 5.1 101770 78
2005-03-15 08:28:50 51°25.021 3°2.226 3.3 104 5.1 101770 78
2005-03-15 08:28:56 51°25.035 3°2.249 3 116 5.1 101770 78
2005-03-15 08:29:01 51°25.049 3°2.272 3.2 111 5.1 101770 78
2005-03-15 08:29:06 51°25.061 3°2.294 3.4 110 5.1 101770 78
2005-03-15 08:29:10 51°25.072 3°2.31 3.5 105 5.1 101760 78
2005-03-15 08:29:16 51°25.085 3°2.334 4.3 95 5.1 101760 78
2005-03-15 08:29:20 51°25.095 3°2.351 4 113 5.1 101770 78
2005-03-15 08:29:26 51°25.111 3°2.379 3.1 111 5.1 101770 78
2005-03-15 08:29:31 51°25.123 3°2.4 3.5 109 5.1 101770 78
2005-03-15 08:29:36 51°25.134 3°2.42 3 117 5.1 101770 78
2005-03-15 08:29:41 51°25.147 3°2.443 3.9 118 5.1 101770 78
2005-03-15 08:29:46 51°25.158 3°2.463 3.2 120 5.1 101770 78
2005-03-15 08:29:51 51°25.171 3°2.484 4.1 96 5.1 101770 78
2005-03-15 08:29:56 51°25.182 3°2.506 3.4 90 5.1 101770 78
2005-03-15 08:30:01 51°25.196 3°2.53 3.4 103 5.1 101770 78
2005-03-15 08:30:06 51°25.208 3°2.55 3.9 102 5.1 101770 78
2005-03-15 08:30:11 51°25.22 3°2.573 2.8 107 5.1 101760 78
2005-03-15 08:30:16 51°25.231 3°2.592 3.8 -999 5.1 101760 78
2005-03-15 08:30:21 51°25.244 3°2.616 4.3 102 5.1 101770 78
2005-03-15 08:30:26 51°25.255 3°2.636 3.6 92 5.1 101770 78
2005-03-15 08:30:31 51°25.268 3°2.658 3.8 109 5.1 101770 78
2005-03-15 08:30:36 51°25.28 3°2.679 4.1 107 5.1 101770 78
2005-03-15 08:30:40 51°25.291 3°2.699 3.1 105 5.1 101810 78
2005-03-15 08:30:46 51°25.305 3°2.725 4.2 91 5.1 101810 78
2005-03-15 08:30:50 51°25.315 3°2.742 3.4 99 5.1 101770 78
2005-03-15 08:30:56 51°25.328 3°2.766 4 103 5.1 101770 78
2005-03-15 08:31:01 51°25.341 3°2.791 4.2 109 5.1 101770 78
2005-03-15 08:31:06 51°25.353 3°2.814 4.1 93 5.1 101770 78
2005-03-15 08:31:11 51°25.364 3°2.836 4 95 5.1 101770 78
2005-03-15 08:31:16 51°25.373 3°2.856 3.7 98 5.1 101770 78
2005-03-15 08:31:21 51°25.385 3°2.879 4 103 5.1 101770 78
2005-03-15 08:31:26 51°25.395 3°2.902 4.5 102 5.1 101770 78
2005-03-15 08:31:30 51°25.405 3°2.923 4.3 95 5.1 101770 78
2005-03-15 08:31:35 51°25.416 3°2.946 4.2 109 5.1 101770 78
2005-03-15 08:31:41 51°25.429 3°2.973 4.6 91 5.1 101760 78
2005-03-15 08:31:46 51°25.44 3°2.997 5.1 111 5.1 101760 78
2005-03-15 08:31:51 51°25.451 3°3.02 4.8 104 5.1 101770 78
2005-03-15 08:31:56 51°25.461 3°3.041 4.2 98 5.1 101770 78
2005-03-15 08:32:02 51°25.473 3°3.069 4.6 104 5 101770 78
2005-03-15 08:32:06 51°25.482 3°3.09 5.1 93 5 101770 78
2005-03-15 08:32:10 51°25.491 3°3.108 4.3 104 5.1 101770 78
2005-03-15 08:32:16 51°25.503 3°3.137 4.6 101 5.1 101770 78
2005-03-15 08:32:21 51°25.513 3°3.158 4.9 108 5.1 101770 78
2005-03-15 08:32:26 51°25.525 3°3.183 5 116 5.1 101770 78
2005-03-15 08:32:31 51°25.534 3°3.204 4.7 101 5.1 101770 78
2005-03-15 08:32:36 51°25.545 3°3.227 4.4 107 5.1 101770 78
2005-03-15 08:32:41 51°25.557 3°3.252 4.7 98 5.1 101770 78
2005-03-15 08:32:46 51°25.569 3°3.276 5.7 105 5.1 101770 78
2005-03-15 08:32:51 51°25.579 3°3.299 5.1 109 5.1 101760 78
2005-03-15 08:32:56 51°25.589 3°3.32 3.8 104 5.1 101760 78
2005-03-15 08:33:02 51°25.601 3°3.348 4.2 96 5.1 101760 78
2005-03-15 08:33:06 51°25.611 3°3.369 5.8 104 5.1 101760 78
2005-03-15 08:33:11 51°25.62 3°3.39 5.3 107 5.1 101770 78
2005-03-15 08:33:16 51°25.631 3°3.414 4 103 5.1 101770 78
2005-03-15 08:33:21 51°25.642 3°3.44 4.3 94 5 101760 78
2005-03-15 08:33:26 51°25.653 3°3.463 5.6 109 5 101760 78
2005-03-15 08:33:31 51°25.663 3°3.486 4.8 109 5.1 101760 78
2005-03-15 08:33:36 51°25.673 3°3.507 5.2 114 5.1 101760 78
2005-03-15 08:33:41 51°25.684 3°3.533 4.9 102 5.1 101760 78
2005-03-15 08:33:46 51°25.694 3°3.555 4.5 106 5.1 101760 78
2005-03-15 08:33:51 51°25.706 3°3.58 4.5 96 5.1 101760 78
2005-03-15 08:33:56 51°25.716 3°3.601 4.7 95 5.1 101760 78
2005-03-15 08:33:59 51°25.723 3°3.618 4.5 100 5.1 101760 78
2005-03-15 08:34:06 51°25.739 3°3.65 4.6 95 5.1 101760 78
2005-03-15 08:34:11 51°25.75 3°3.672 4.3 104 5.1 101760 78
2005-03-15 08:34:16 51°25.759 3°3.693 4.6 101 5.1 101760 78
2005-03-15 08:34:20 51°25.768 3°3.711 4.5 101 5.1 101760 78
2005-03-15 08:34:26 51°25.782 3°3.741 4.7 105 5.1 101760 78
2005-03-15 08:34:30 51°25.792 3°3.76 5 108 5.1 101760 78
2005-03-15 08:34:36 51°25.804 3°3.785 5.3 104 5.1 101760 78
2005-03-15 08:34:40 51°25.813 3°3.804 5.4 106 5.1 101760 78
2005-03-15 08:34:46 51°25.826 3°3.832 4.7 112 5.1 101760 78
2005-03-15 08:34:50 51°25.836 3°3.853 4.4 102 5.1 101810 78
2005-03-15 08:34:55 51°25.847 3°3.876 5 108 5.1 101810 78
2005-03-15 08:35:01 51°25.86 3°3.903 4.6 102 5.1 101760 78
2005-03-15 08:35:06 51°25.871 3°3.927 4.8 100 5.1 101760 78
2005-03-15 08:35:11 51°25.881 3°3.95 4.9 115 5.1 101760 78
2005-03-15 08:35:16 51°25.891 3°3.971 4.3 99 5.1 101760 78
2005-03-15 08:35:21 51°25.904 3°3.997 4.8 109 5.1 101770 78
2005-03-15 08:35:26 51°25.915 3°4.02 4.4 99 5.1 101770 78
2005-03-15 08:35:30 51°25.924 3°4.038 4.8 106 5.1 101770 78
2005-03-15 08:35:36 51°25.936 3°4.064 4.7 92 5.1 101770 78
2005-03-15 08:35:41 51°25.947 3°4.087 4.7 106 5.1 101810 78
2005-03-15 08:35:46 51°25.959 3°4.112 4.6 101 5.1 101810 78
2005-03-15 08:35:50 51°25.968 3°4.131 4.7 105 5.1 101760 78
2005-03-15 08:35:56 51°25.981 3°4.157 4.3 96 5.1 101760 78
2005-03-15 08:36:00 51°25.99 3°4.176 5.6 104 5.1 101760 78
2005-03-15 08:36:06 51°26.004 3°4.208 5.1 97 5.1 101760 78
2005-03-15 08:36:10 51°26.014 3°4.226 5.6 97 5.1 101760 78
2005-03-15 08:36:16 51°26.026 3°4.252 4.9 109 5.1 101760 78
2005-03-15 08:36:21 51°26.037 3°4.276 5.1 106 5.1 101800 78
2005-03-15 08:36:26 51°26.049 3°4.302 4.2 103 5.1 101800 78
2005-03-15 08:36:31 51°26.06 3°4.326 5.6 107 5.1 101760 78
2005-03-15 08:36:36 51°26.071 3°4.351 4.9 116 5.1 101760 78
2005-03-15 08:36:41 51°26.081 3°4.374 5.3 115 5.1 101760 78
2005-03-15 08:36:46 51°26.091 3°4.398 4.8 112 5.1 101760 78
2005-03-15 08:36:50 51°26.1 3°4.418 6.2 103 5.1 101760 78
2005-03-15 08:36:56 51°26.111 3°4.445 6 111 5.1 101760 78
2005-03-15 08:37:02 51°26.124 3°4.475 5.8 111 5.1 101760 78
2005-03-15 08:37:06 51°26.133 3°4.498 5.7 105 5.1 101760 78
2005-03-15 08:37:10 51°26.142 3°4.517 6.7 111 5.1 101760 78
2005-03-15 08:37:15 51°26.152 3°4.542 5.1 108 5.1 101760 78
2005-03-15 08:37:21 51°26.164 3°4.572 5.9 112 5.2 101760 78
2005-03-15 08:37:26 51°26.174 3°4.597 5.9 112 5.2 101760 78
2005-03-15 08:37:31 51°26.185 3°4.622 5.4 114 5.1 101760 78